Peru, IN

5:38 PM EDT on May 25, 2017 (GMT -0400)
Grissom Air Reserve Base

Weather History for KGUS - October, 2011

Change the Weather History Date:

Wednesday, October 5, 2011

  Actual Average Record
Temperature  
Mean Temperature 64 °F -  
Max Temperature 81 °F 66 °F 87 °F (1997)
Min Temperature 46 °F 46 °F 32 °F (1999)
Degree Days  
Heating Degree Days 1    
Growing Degree Days 14 (Base 50)    
Moisture  
Dew Point 43 °F    
Average Humidity 54    
Maximum Humidity 100    
Minimum Humidity 18    
Precipitation  
Precipitation 0.00 in - - ()
Sea Level Pressure  
Sea Level Pressure 30.24 in    
Wind  
Wind Speed 2 mph (SSE)    
Max Wind Speed 6 mph    
Max Gust Speed -    
Visibility 8 miles    
Events      
Averages and records for this station are not official NWS values.
T = Trace of Precipitation, MM = Missing Value Source: NWS Daily Summary

Daily Weather History Graph

Daily Weather History Graph

Search for Another Location

Airport or City:

Trip Planner

Search our weather history database for the weather conditions in past years. The results will help you decide how hot, cold, wet, or windy it might be!

Date:

Astronomy

Oct. 05, 2011 Rise Set
Actual Time 7:44 AM EDT 7:20 PM EDT
Civil Twilight 7:17 AM EDT 7:47 PM EDT
Nautical Twilight 6:45 AM EDT 8:19 PM EDT
Astronomical Twilight 6:14 AM EDT 8:51 PM EDT
Moon 4:02 PM EDT (10/5) 1:28 AM EDT (10/5)
Length of Visible Light 12h 30m
Length of Day
11h 35m
Waxing Gibbous, 66% of the Moon is Illuminated
Oct 5
Waxing Gibbous
Oct 11
Full
Oct 19
Last Quarter
Oct 26
New
Nov 2
First Quarter

Hourly Weather History & Observations

Time (EDT) Temp. Dew Point Humidity Pressure Visibility Wind Dir Wind Speed Gust Speed Precip Events Conditions
12:55 AM 52.3 °F 45.5 °F 78% 30.25 in 10.0 mi SSE 3.5 mph - N/A   Partly Cloudy
1:55 AM 52.3 °F 44.1 °F 73% 30.25 in 10.0 mi South 3.5 mph - N/A   Scattered Clouds
2:55 AM 52.2 °F 45.1 °F 77% 30.25 in 10.0 mi Calm Calm - N/A   Mostly Cloudy
3:55 AM 51.1 °F 45.7 °F 82% 30.25 in 10.0 mi SSE 3.5 mph - N/A   Partly Cloudy
4:55 AM 50.0 °F 48.9 °F 96% 30.25 in 10.0 mi South 3.5 mph - N/A   Partly Cloudy
5:55 AM 49.1 °F 48.9 °F 99% 30.26 in 10.0 mi Calm Calm - N/A   Clear
6:55 AM 47.8 °F 47.7 °F 99% 30.28 in 10.0 mi Calm Calm - N/A   Clear
7:55 AM 46.9 °F 46.9 °F 100% 30.30 in 10.0 mi Calm Calm - N/A   Clear
8:55 AM 51.3 °F 51.3 °F 100% 30.30 in 10.0 mi Calm Calm - N/A   Clear
9:55 AM 59.2 °F 54.7 °F 85% 30.31 in 10.0 mi Calm Calm - N/A   Clear
10:55 AM 67.5 °F 48.2 °F 50% 30.31 in 10.0 mi SSW 3.5 mph - N/A   Clear
11:55 AM 72.0 °F 41.4 °F 33% 30.30 in 10.0 mi West 3.5 mph - N/A   Clear
12:55 PM 74.8 °F 38.1 °F 26% 30.29 in 10.0 mi Calm Calm - N/A   Clear
1:55 PM 77.4 °F 34.0 °F 21% 30.26 in 10.0 mi Calm Calm - N/A   Clear
2:39 PM 78.8 °F 37.4 °F 23% 30.24 in 4.0 mi Calm Calm - N/A   Haze
2:43 PM 80.6 °F 37.4 °F 21% 30.24 in 2.0 mi Calm Calm - N/A   Haze
2:55 PM 79.3 °F 35.6 °F 21% 30.24 in 10.0 mi WSW 3.5 mph - N/A   Clear
3:55 PM 79.5 °F 35.1 °F 20% 30.22 in 10.0 mi Calm Calm - N/A   Clear
4:55 PM 80.6 °F 33.8 °F 18% 30.21 in 4.0 mi SSE 3.5 mph - N/A   Haze
4:59 PM 82.4 °F 35.6 °F 19% 30.21 in 2.5 mi SSE 3.5 mph - N/A   Haze
5:01 PM 82.4 °F 35.6 °F 19% 30.21 in 2.0 mi SSE 4.6 mph - N/A   Haze
5:06 PM 80.6 °F 33.8 °F 18% 30.21 in 2.5 mi South 3.5 mph - N/A   Haze
5:09 PM 80.6 °F 33.8 °F 18% 30.21 in 3.0 mi Calm Calm - N/A   Haze
5:44 PM 78.8 °F 37.4 °F 23% 30.20 in 5.0 mi Calm Calm - N/A   Haze
5:55 PM 79.2 °F 36.9 °F 22% 30.21 in 10.0 mi Calm Calm - N/A   Clear
6:55 PM 77.2 °F 36.5 °F 23% 30.21 in 10.0 mi Calm Calm - N/A   Clear
7:55 PM 64.8 °F 50.4 °F 60% 30.22 in 10.0 mi East 3.5 mph - N/A   Clear
8:55 PM 62.8 °F 48.9 °F 61% 30.23 in 10.0 mi Calm Calm - N/A   Clear
9:55 PM 58.8 °F 52.9 °F 81% 30.23 in 10.0 mi East 3.5 mph - N/A   Clear
10:55 PM 59.0 °F 50.7 °F 74% 30.23 in 10.0 mi ESE 4.6 mph - N/A   Clear
10:57 PM 59.0 °F 50.0 °F 72% 30.24 in 9.0 mi ESE 5.8 mph - N/A   Clear
11:08 PM 59.0 °F 50.0 °F 72% 30.23 in 7.0 mi ESE 4.6 mph - N/A   Clear
11:10 PM 59.0 °F 50.0 °F 72% 30.23 in 7.0 mi ESE 5.8 mph - N/A   Clear
11:21 PM 59.0 °F 50.0 °F 72% 30.23 in 7.0 mi ESE 4.6 mph - N/A   Clear
11:55 PM 57.7 °F 50.2 °F 76% 30.23 in 6.0 mi SE 3.5 mph - N/A   Haze